QPF
0.00 0.00 0.00 0.00 0.00 0.00 0.01 0.00 0.01 0.00 0.00 0.00 0.01 0.01 0.01 0.01 0.01 0.00 0.00 0.00 0.00 0.00 0.00 0.00 0.00 0.00 0.00 0.01 0.01 0.01 0.02 0.03 0.05 0.05 0.05 0.05 0.04 0.04 0.04 0.04 0.04 0.04 0.03 0.02
0.00 0.00 0.00 0.00 0.00 0.00 0.00 0.00 0.00 0.00 0.00 0.00 0.01 0.01 0.01 0.01 0.01 0.00 0.00 0.00 0.00 0.00 0.00 0.00 0.00 0.00 0.00 0.01 0.04 0.04 0.03 0.03 0.04 0.05 0.05 0.05 0.05 0.04 0.04 0.03 0.02 0.03 0.03 0.02
0.00 0.00 0.00 0.00 0.00 0.00 0.00 0.00 0.00 0.00 0.00 0.00 0.00 0.01 0.01 0.00 0.01 0.01 0.00 0.00 0.00 0.00 0.00 0.00 0.01 0.01 0.01 0.01 0.03 0.06 0.05 0.05 0.05 0.06 0.07 0.05 0.06 0.04 0.03 0.03 0.03 0.03 0.04 0.03
0.00 0.00 0.00 0.00 0.00 0.00 0.00 0.00 0.00 0.00 0.00 0.00 0.00 0.00 0.00 0.00 0.00 0.00 0.01 0.00 0.00 0.00 0.00 0.00 0.00 0.01 0.01 0.02 0.03 0.05 0.05 0.06 0.06 0.07 0.08 0.07 0.07 0.07 0.06 0.05 0.04 0.03 0.02 0.02
0.00 0.00 0.00 0.00 0.00 0.00 0.00 0.00 0.00 0.00 0.00 0.00 0.00 0.00 0.00 0.00 0.00 0.00 0.00 0.00 0.00 0.01 0.01 0.01 0.01 0.01 0.01 0.01 0.02 0.04 0.04 0.05 0.04 0.04 0.05 0.06 0.07 0.07 0.06 0.04 0.02 0.02 0.02 0.02
0.01 0.01 0.01 0.00 0.00 0.01 0.00 0.00 0.00 0.00 0.00 0.00 0.00 0.00 0.00 0.00 0.00 0.00 0.00 0.00 0.00 0.01 0.01 0.01 0.01 0.01 0.01 0.01 0.02 0.03 0.04 0.04 0.03 0.03 0.03 0.03 0.05 0.05 0.05 0.04 0.02 0.02 0.01 0.01
0.00 0.00 0.01 0.01 0.01 0.01 0.01 0.01 0.00 0.00 0.00 0.00 0.00 0.00 0.00 0.00 0.00 0.00 0.00 0.00 0.00 0.00 0.01 0.01 0.02 0.02 0.02 0.01 0.02 0.03 0.04 0.03 0.03 0.03 0.02 0.02 0.02 0.03 0.04 0.04 0.04 0.03 0.01 0.01
0.00 0.00 0.00 0.01 0.01 0.01 0.01 0.01 0.00 0.00 0.00 0.00 0.00 0.00 0.00 0.00 0.00 0.00 0.00 0.00 0.00 0.00 0.00 0.01 0.01 0.02 0.03 0.02 0.01 0.01 0.02 0.02 0.01 0.02 0.02 0.02 0.01 0.02 0.03 0.03 0.04 0.05 0.03 0.02
0.01 0.00 0.00 0.01 0.01 0.01 0.01 0.00 0.00 0.00 0.01 0.01 0.00 0.00 0.00 0.00 0.00 0.00 0.00 0.00 0.00 0.00 0.00 0.00 0.00 0.01 0.03 0.02 0.02 0.01 0.01 0.00 0.00 0.01 0.01 0.02 0.02 0.02 0.02 0.03 0.03 0.03 0.03 0.03
0.01 0.01 0.01 0.01 0.01 0.01 0.01 0.00 0.00 0.00 0.00 0.01 0.01 0.00 0.00 0.00 0.00 0.00 0.00 0.00 0.00 0.00 0.00 0.00 0.00 0.01 0.01 0.01 0.01 0.01 0.00 0.00 0.00 0.00 0.01 0.02 0.03 0.02 0.03 0.03 0.03 0.03 0.02 0.02
0.02 0.02 0.02 0.01 0.01 0.01 0.01 0.00 0.00 0.00 0.00 0.00 0.01 0.01 0.01 0.01 0.00 0.00 0.00 0.00 0.00 0.01 0.00 0.00 0.00 0.00 0.01 0.01 0.01 0.00 0.01 0.01 0.01 0.01 0.01 0.02 0.03 0.04 0.05 0.05 0.05 0.06 0.05 0.04
0.03 0.02 0.02 0.02 0.01 0.01 0.00 0.00 0.00 0.00 0.00 0.00 0.01 0.01 0.01 0.01 0.01 0.01 0.01 0.01 0.00 0.00 0.00 0.00 0.00 0.00 0.00 0.01 0.01 0.01 0.01 0.01 0.01 0.02 0.02 0.02 0.02 0.04 0.04 0.04 0.04 0.04 0.03 0.03
0.02 0.02 0.02 0.01 0.01 0.01 0.00 0.00 0.00 0.00 0.00 0.00 0.00 0.00 0.00 0.00 0.01 0.01 0.01 0.01 0.01 0.02 0.01 0.01 0.01 0.01 0.01 0.00 0.01 0.01 0.01 0.01 0.01 0.02 0.02 0.02 0.02 0.03 0.03 0.03 0.03 0.03 0.02 0.02
0.01 0.01 0.02 0.02 0.02 0.01 0.01 0.00 0.00 0.00 0.00 0.00 0.00 0.00 0.00 0.00 0.00 0.00 0.01 0.01 0.01 0.02 0.02 0.01 0.01 0.01 0.01 0.01 0.01 0.01 0.01 0.01 0.01 0.01 0.01 0.01 0.01 0.02 0.02 0.02 0.02 0.02 0.02 0.01
0.01 0.01 0.01 0.01 0.01 0.01 0.01 0.01 0.01 0.00 0.00 0.00 0.00 0.00 0.00 0.00 0.00 0.00 0.00 0.00 0.01 0.01 0.02 0.02 0.01 0.01 0.01 0.01 0.01 0.01 0.01 0.01 0.01 0.01 0.01 0.01 0.02 0.02 0.02 0.02 0.03 0.03 0.02 0.01
0.00 0.00 0.00 0.01 0.00 0.00 0.00 0.01 0.01 0.01 0.01 0.01 0.01 0.01 0.00 0.00 0.00 0.00 0.00 0.00 0.01 0.01 0.01 0.01 0.01 0.01 0.01 0.01 0.01 0.00 0.01 0.01 0.01 0.01 0.01 0.01 0.01 0.01 0.02 0.03 0.03 0.03 0.02 0.01
0.00 0.00 0.00 0.00 0.00 0.00 0.00 0.00 0.00 0.01 0.01 0.01 0.01 0.01 0.00 0.00 0.00 0.00 0.00 0.00 0.01 0.01 0.01 0.02 0.01 0.01 0.01 0.01 0.01 0.01 0.00 0.01 0.01 0.01 0.01 0.01 0.01 0.02 0.02 0.02 0.02 0.02 0.02 0.02
0.00 0.00 0.00 0.00 0.00 0.00 0.00 0.01 0.01 0.01 0.01 0.01 0.01 0.01 0.00 0.00 0.00 0.00 0.00 0.01 0.01 0.01 0.01 0.01 0.01 0.01 0.01 0.00 0.01 0.01 0.01 0.01 0.00 0.01 0.01 0.01 0.01 0.02 0.02 0.02 0.03 0.03 0.03 0.02
0.00 0.00 0.00 0.00 0.00 0.01 0.01 0.01 0.01 0.01 0.01 0.01 0.01 0.01 0.01 0.01 0.01 0.01 0.01 0.01 0.01 0.02 0.01 0.01 0.01 0.01 0.00 0.01 0.01 0.01 0.01 0.01 0.01 0.01 0.01 0.01 0.02 0.02 0.02 0.02 0.03 0.03 0.04 0.04
0.00 0.00 0.00 0.00 0.01 0.01 0.01 0.01 0.01 0.01 0.01 0.01 0.01 0.01 0.01 0.01 0.01 0.01 0.01 0.01 0.01 0.02 0.02 0.01 0.01 0.01 0.01 0.01 0.01 0.01 0.01 0.01 0.01 0.01 0.01 0.01 0.02 0.02 0.02 0.02 0.01 0.01 0.01 0.01
0.00 0.00 0.00 0.00 0.01 0.01 0.01 0.01 0.01 0.01 0.01 0.01 0.01 0.01 0.01 0.01 0.01 0.01 0.01 0.01 0.00 0.01 0.02 0.03 0.03 0.02 0.02 0.03 0.02 0.01 0.01 0.01 0.01 0.01 0.02 0.02 0.02 0.03 0.02 0.02 0.01 0.01 0.01 0.01
0.00 0.00 0.01 0.01 0.01 0.01 0.01 0.01 0.01 0.01 0.01 0.01 0.01 0.01 0.01 0.01 0.00 0.00 0.00 0.00 0.00 0.01 0.02 0.05 0.06 0.08 0.07 0.04 0.02 0.01 0.01 0.01 0.01 0.02 0.03 0.03 0.03 0.03 0.02 0.02 0.01 0.01 0.01 0.01
0.00 0.00 0.01 0.01 0.01 0.01 0.01 0.01 0.01 0.01 0.01 0.01 0.01 0.01 0.01 0.00 0.00 0.00 0.00 0.00 0.01 0.01 0.02 0.03 0.08 0.11 0.10 0.06 0.03 0.03 0.02 0.01 0.01 0.02 0.03 0.03 0.03 0.03 0.02 0.02 0.01 0.01 0.01 0.01
0.00 0.01 0.01 0.01 0.01 0.01 0.01 0.01 0.00 0.00 0.01 0.01 0.01 0.01 0.01 0.01 0.01 0.01 0.01 0.02 0.02 0.02 0.02 0.02 0.04 0.06 0.07 0.06 0.06 0.05 0.03 0.03 0.02 0.02 0.02 0.02 0.02 0.02 0.02 0.01 0.01 0.01 0.01 0.01
0.01 0.01 0.01 0.01 0.01 0.01 0.00 0.00 0.00 0.00 0.01 0.00 0.01 0.01 0.01 0.02 0.02 0.03 0.03 0.03 0.03 0.03 0.03 0.03 0.04 0.04 0.04 0.04 0.05 0.06 0.04 0.03 0.03 0.02 0.02 0.02 0.02 0.02 0.02 0.02 0.02 0.01 0.02 0.02
0.01 0.01 0.01 0.01 0.01 0.00 0.00 0.00 0.01 0.01 0.01 0.00 0.00 0.01 0.01 0.02 0.03 0.04 0.04 0.04 0.04 0.05 0.05 0.05 0.05 0.04 0.04 0.03 0.04 0.04 0.04 0.04 0.03 0.02 0.01 0.02 0.02 0.02 0.03 0.03 0.02 0.02 0.03 0.03
0.01 0.01 0.01 0.01 0.00 0.00 0.00 0.00 0.01 0.01 0.01 0.01 0.01 0.01 0.01 0.01 0.02 0.02 0.02 0.03 0.04 0.05 0.05 0.04 0.04 0.04 0.04 0.04 0.04 0.03 0.03 0.03 0.02 0.02 0.02 0.02 0.02 0.02 0.02 0.02 0.03 0.03 0.03 0.03
MSLP
1017.68 1018.02 1018.32 1018.55 1018.66 1018.63 1018.45 1018.13 1017.69 1017.16 1016.60 1016.06 1015.58 1015.20 1014.92 1014.74 1014.65 1014.61 1014.60 1014.60 1014.58 1014.56 1014.56 1014.59 1014.69 1014.89 1015.19 1015.61 1016.13 1016.72 1017.36 1018.02 1018.66 1019.28 1019.85 1020.37 1020.85 1021.29 1021.70 1022.09 1022.45 1022.78 1023.10 1023.40
1017.90 1018.10 1018.22 1018.25 1018.15 1017.93 1017.62 1017.22 1016.77 1016.31 1015.89 1015.52 1015.24 1015.04 1014.91 1014.83 1014.77 1014.69 1014.60 1014.47 1014.31 1014.15 1014.03 1013.98 1014.04 1014.23 1014.55 1015.01 1015.58 1016.22 1016.91 1017.60 1018.28 1018.92 1019.51 1020.06 1020.57 1021.04 1021.49 1021.90 1022.29 1022.64 1022.97 1023.27
1018.13 1018.19 1018.15 1018.01 1017.75 1017.41 1017.01 1016.59 1016.19 1015.83 1015.54 1015.34 1015.23 1015.17 1015.15 1015.12 1015.04 1014.90 1014.69 1014.41 1014.11 1013.80 1013.56 1013.41 1013.41 1013.57 1013.89 1014.37 1014.96 1015.63 1016.35 1017.07 1017.77 1018.43 1019.05 1019.63 1020.18 1020.70 1021.18 1021.64 1022.07 1022.45 1022.79 1023.10
1018.37 1018.29 1018.12 1017.84 1017.49 1017.08 1016.66 1016.26 1015.93 1015.68 1015.53 1015.47 1015.49 1015.54 1015.58 1015.56 1015.44 1015.22 1014.89 1014.47 1014.01 1013.57 1013.21 1012.97 1012.90 1013.01 1013.30 1013.76 1014.34 1015.01 1015.72 1016.44 1017.14 1017.82 1018.46 1019.07 1019.66 1020.23 1020.77 1021.28 1021.75 1022.18 1022.55 1022.87
1018.58 1018.38 1018.10 1017.74 1017.32 1016.89 1016.49 1016.15 1015.90 1015.76 1015.73 1015.80 1015.91 1016.03 1016.09 1016.06 1015.90 1015.60 1015.17 1014.64 1014.06 1013.51 1013.05 1012.73 1012.58 1012.63 1012.86 1013.27 1013.81 1014.42 1015.09 1015.77 1016.45 1017.11 1017.75 1018.39 1019.01 1019.62 1020.22 1020.79 1021.32 1021.80 1022.20 1022.54
1018.74 1018.44 1018.08 1017.66 1017.22 1016.80 1016.44 1016.16 1016.00 1015.96 1016.02 1016.17 1016.35 1016.51 1016.58 1016.54 1016.34 1015.99 1015.49 1014.90 1014.26 1013.65 1013.12 1012.73 1012.52 1012.50 1012.66 1012.98 1013.42 1013.95 1014.53 1015.14 1015.75 1016.37 1016.99 1017.63 1018.27 1018.92 1019.56 1020.18 1020.76 1021.28 1021.72 1022.09
1018.82 1018.45 1018.03 1017.58 1017.15 1016.75 1016.44 1016.22 1016.13 1016.16 1016.29 1016.48 1016.70 1016.87 1016.96 1016.91 1016.71 1016.34 1015.84 1015.23 1014.59 1013.96 1013.42 1013.00 1012.74 1012.65 1012.72 1012.93 1013.26 1013.66 1014.12 1014.61 1015.13 1015.67 1016.25 1016.85 1017.48 1018.14 1018.81 1019.46 1020.07 1020.63 1021.10 1021.49
1018.82 1018.40 1017.95 1017.50 1017.08 1016.71 1016.44 1016.27 1016.23 1016.29 1016.45 1016.67 1016.90 1017.08 1017.18 1017.14 1016.96 1016.63 1016.17 1015.62 1015.03 1014.45 1013.93 1013.52 1013.23 1013.08 1013.06 1013.15 1013.34 1013.60 1013.91 1014.26 1014.66 1015.10 1015.59 1016.13 1016.73 1017.36 1018.02 1018.67 1019.29 1019.85 1020.34 1020.75
1018.77 1018.32 1017.86 1017.42 1017.02 1016.69 1016.45 1016.31 1016.29 1016.37 1016.53 1016.74 1016.96 1017.14 1017.25 1017.25 1017.12 1016.86 1016.49 1016.04 1015.55 1015.06 1014.61 1014.22 1013.93 1013.74 1013.63 1013.61 1013.66 1013.77 1013.92 1014.13 1014.38 1014.70 1015.09 1015.54 1016.07 1016.65 1017.25 1017.87 1018.46 1019.00 1019.48 1019.88
1018.68 1018.24 1017.80 1017.38 1017.01 1016.71 1016.49 1016.37 1016.34 1016.41 1016.56 1016.74 1016.94 1017.12 1017.24 1017.28 1017.22 1017.06 1016.81 1016.48 1016.12 1015.74 1015.38 1015.05 1014.77 1014.55 1014.37 1014.25 1014.17 1014.14 1014.15 1014.21 1014.33 1014.52 1014.79 1015.14 1015.56 1016.05 1016.58 1017.12 1017.64 1018.13 1018.57 1018.95
1018.62 1018.21 1017.80 1017.42 1017.09 1016.82 1016.62 1016.50 1016.47 1016.51 1016.62 1016.77 1016.94 1017.10 1017.23 1017.31 1017.32 1017.26 1017.13 1016.94 1016.71 1016.45 1016.18 1015.91 1015.66 1015.41 1015.19 1014.99 1014.81 1014.66 1014.54 1014.48 1014.48 1014.55 1014.70 1014.94 1015.26 1015.63 1016.05 1016.48 1016.91 1017.31 1017.68 1018.01
1018.64 1018.27 1017.91 1017.58 1017.30 1017.06 1016.88 1016.77 1016.72 1016.73 1016.80 1016.90 1017.04 1017.18 1017.31 1017.41 1017.48 1017.50 1017.47 1017.39 1017.27 1017.11 1016.93 1016.71 1016.48 1016.23 1015.98 1015.72 1015.47 1015.24 1015.04 1014.89 1014.80 1014.77 1014.83 1014.96 1015.16 1015.41 1015.71 1016.01 1016.32 1016.62 1016.89 1017.15
1018.75 1018.44 1018.14 1017.88 1017.64 1017.45 1017.30 1017.19 1017.13 1017.11 1017.13 1017.19 1017.28 1017.39 1017.51 1017.62 1017.71 1017.78 1017.82 1017.82 1017.77 1017.69 1017.55 1017.38 1017.17 1016.93 1016.65 1016.37 1016.09 1015.81 1015.57 1015.37 1015.22 1015.13 1015.12 1015.16 1015.26 1015.40 1015.57 1015.75 1015.93 1016.11 1016.28 1016.45
1018.97 1018.72 1018.49 1018.29 1018.12 1017.97 1017.85 1017.75 1017.67 1017.63 1017.61 1017.63 1017.67 1017.74 1017.83 1017.92 1018.02 1018.10 1018.16 1018.20 1018.19 1018.13 1018.03 1017.87 1017.67 1017.43 1017.16 1016.88 1016.59 1016.31 1016.06 1015.85 1015.69 1015.58 1015.52 1015.50 1015.52 1015.56 1015.61 1015.68 1015.74 1015.80 1015.86 1015.94
1019.28 1019.09 1018.93 1018.79 1018.67 1018.57 1018.48 1018.39 1018.32 1018.25 1018.20 1018.17 1018.17 1018.19 1018.23 1018.29 1018.35 1018.42 1018.47 1018.49 1018.48 1018.42 1018.32 1018.17 1017.97 1017.74 1017.49 1017.22 1016.96 1016.71 1016.49 1016.31 1016.16 1016.05 1015.97 1015.92 1015.88 1015.85 1015.81 1015.77 1015.72 1015.68 1015.64 1015.63
1019.65 1019.51 1019.41 1019.33 1019.26 1019.20 1019.13 1019.06 1018.98 1018.89 1018.81 1018.74 1018.69 1018.65 1018.64 1018.65 1018.66 1018.69 1018.70 1018.69 1018.65 1018.57 1018.45 1018.29 1018.10 1017.89 1017.65 1017.42 1017.20 1017.00 1016.83 1016.69 1016.59 1016.50 1016.43 1016.36 1016.29 1016.20 1016.09 1015.97 1015.83 1015.70 1015.57 1015.47
1020.04 1019.96 1019.90 1019.87 1019.84 1019.80 1019.75 1019.67 1019.58 1019.48 1019.36 1019.25 1019.15 1019.07 1019.00 1018.95 1018.91 1018.88 1018.84 1018.78 1018.71 1018.60 1018.46 1018.29 1018.10 1017.90 1017.70 1017.51 1017.34 1017.20 1017.09 1017.00 1016.94 1016.88 1016.83 1016.75 1016.66 1016.53 1016.37 1016.18 1015.98 1015.77 1015.57 1015.40
1020.45 1020.40 1020.37 1020.36 1020.35 1020.32 1020.27 1020.19 1020.08 1019.95 1019.80 1019.65 1019.51 1019.37 1019.26 1019.16 1019.07 1018.98 1018.90 1018.80 1018.69 1018.55 1018.40 1018.22 1018.04 1017.86 1017.69 1017.54 1017.42 1017.33 1017.27 1017.23 1017.20 1017.17 1017.12 1017.04 1016.92 1016.76 1016.56 1016.32 1016.06 1015.80 1015.54 1015.31
1020.85 1020.82 1020.81 1020.80 1020.78 1020.74 1020.67 1020.57 1020.44 1020.28 1020.10 1019.92 1019.74 1019.57 1019.41 1019.27 1019.14 1019.02 1018.90 1018.77 1018.64 1018.48 1018.32 1018.15 1017.97 1017.81 1017.67 1017.55 1017.47 1017.41 1017.38 1017.36 1017.34 1017.32 1017.26 1017.16 1017.01 1016.82 1016.58 1016.30 1016.00 1015.68 1015.38 1015.10
1021.25 1021.22 1021.20 1021.18 1021.14 1021.08 1020.97 1020.84 1020.67 1020.48 1020.28 1020.07 1019.86 1019.67 1019.49 1019.32 1019.17 1019.03 1018.89 1018.75 1018.60 1018.44 1018.28 1018.11 1017.95 1017.80 1017.67 1017.57 1017.50 1017.45 1017.41 1017.39 1017.36 1017.30 1017.21 1017.08 1016.89 1016.66 1016.37 1016.05 1015.71 1015.36 1015.02 1014.70
1021.64 1021.60 1021.56 1021.51 1021.44 1021.33 1021.20 1021.02 1020.83 1020.61 1020.38 1020.15 1019.93 1019.72 1019.53 1019.36 1019.20 1019.05 1018.91 1018.76 1018.61 1018.45 1018.29 1018.12 1017.96 1017.82 1017.69 1017.58 1017.49 1017.42 1017.36 1017.30 1017.22 1017.12 1016.98 1016.79 1016.55 1016.26 1015.93 1015.57 1015.20 1014.81 1014.44 1014.09
1022.02 1021.96 1021.89 1021.81 1021.69 1021.55 1021.37 1021.17 1020.94 1020.70 1020.45 1020.21 1019.99 1019.78 1019.59 1019.42 1019.27 1019.12 1018.97 1018.82 1018.67 1018.51 1018.34 1018.17 1018.00 1017.84 1017.69 1017.55 1017.43 1017.31 1017.20 1017.08 1016.93 1016.76 1016.55 1016.29 1015.99 1015.65 1015.28 1014.88 1014.47 1014.06 1013.66 1013.29
1022.37 1022.29 1022.19 1022.07 1021.92 1021.74 1021.53 1021.30 1021.05 1020.80 1020.55 1020.31 1020.09 1019.88 1019.70 1019.53 1019.37 1019.22 1019.07 1018.92 1018.75 1018.58 1018.40 1018.21 1018.01 1017.82 1017.63 1017.45 1017.27 1017.09 1016.90 1016.71 1016.49 1016.23 1015.95 1015.63 1015.27 1014.87 1014.46 1014.02 1013.59 1013.16 1012.74 1012.35
1022.68 1022.57 1022.45 1022.30 1022.12 1021.91 1021.68 1021.43 1021.18 1020.92 1020.68 1020.44 1020.22 1020.02 1019.84 1019.67 1019.51 1019.35 1019.19 1019.01 1018.82 1018.62 1018.40 1018.18 1017.94 1017.71 1017.47 1017.22 1016.98 1016.73 1016.47 1016.20 1015.90 1015.58 1015.22 1014.84 1014.43 1013.99 1013.54 1013.08 1012.62 1012.17 1011.74 1011.33
1022.93 1022.80 1022.66 1022.48 1022.29 1022.06 1021.82 1021.57 1021.32 1021.06 1020.82 1020.60 1020.38 1020.18 1020.00 1019.82 1019.64 1019.45 1019.26 1019.05 1018.82 1018.57 1018.31 1018.04 1017.75 1017.46 1017.16 1016.86 1016.56 1016.24 1015.92 1015.57 1015.21 1014.83 1014.42 1013.98 1013.53 1013.06 1012.58 1012.10 1011.62 1011.16 1010.72 1010.29
1023.10 1022.97 1022.80 1022.62 1022.41 1022.18 1021.93 1021.69 1021.43 1021.19 1020.95 1020.73 1020.52 1020.31 1020.11 1019.90 1019.69 1019.47 1019.23 1018.97 1018.69 1018.40 1018.08 1017.75 1017.41 1017.07 1016.72 1016.36 1016.00 1015.63 1015.25 1014.86 1014.45 1014.02 1013.57 1013.10 1012.62 1012.12 1011.62 1011.12 1010.63 1010.15 1009.68 1009.23
1023.19 1023.05 1022.88 1022.68 1022.47 1022.23 1021.99 1021.74 1021.50 1021.26 1021.02 1020.79 1020.57 1020.34 1020.12 1019.88 1019.63 1019.36 1019.07 1018.76 1018.42 1018.07 1017.71 1017.33 1016.94 1016.55 1016.16 1015.76 1015.36 1014.95 1014.53 1014.10 1013.66 1013.20 1012.72 1012.22 1011.71 1011.19 1010.66 1010.13 1009.61 1009.10 1008.61 1008.12
Thickness
5672 5678 5678 5677 5678 5679 5671 5663 5654 5661 5665 5674 5680 5681 5681 5680 5677 5675 5673 5672 5670 5667 5666 5665 5664 5664 5665 5664 5663 5662 5660 5658 5657 5656 5656 5656 5655 5655 5654 5654 5653 5652 5650 5650
5667 5674 5673 5671 5675 5675 5674 5671 5665 5666 5667 5679 5682 5679 5675 5674 5672 5670 5668 5667 5665 5663 5662 5660 5659 5658 5658 5658 5658 5656 5654 5652 5652 5651 5649 5649 5648 5648 5648 5647 5646 5645 5644 5643
5648 5660 5663 5656 5670 5671 5671 5674 5670 5661 5668 5675 5672 5672 5671 5670 5668 5666 5664 5662 5660 5659 5657 5656 5656 5655 5653 5652 5651 5650 5648 5646 5645 5644 5641 5641 5641 5640 5640 5640 5639 5638 5638 5637
5640 5647 5640 5659 5676 5677 5671 5671 5672 5671 5671 5673 5672 5671 5671 5669 5665 5662 5660 5657 5655 5653 5652 5652 5651 5650 5649 5647 5644 5642 5641 5639 5638 5636 5634 5633 5632 5632 5632 5632 5631 5630 5630 5630
5629 5630 5638 5657 5670 5671 5663 5659 5667 5666 5666 5666 5666 5661 5658 5663 5662 5659 5656 5653 5651 5649 5648 5647 5645 5644 5642 5639 5637 5634 5632 5631 5631 5629 5627 5625 5624 5624 5624 5623 5623 5623 5623 5622
5624 5625 5626 5650 5669 5673 5662 5647 5662 5661 5659 5658 5655 5641 5645 5656 5656 5653 5651 5648 5646 5643 5642 5640 5639 5637 5634 5631 5629 5627 5626 5624 5624 5622 5620 5618 5617 5616 5615 5615 5615 5615 5615 5614
5619 5618 5629 5652 5662 5663 5639 5642 5657 5657 5655 5653 5647 5646 5649 5651 5649 5647 5644 5642 5640 5637 5634 5632 5631 5629 5626 5623 5622 5621 5620 5618 5616 5614 5613 5611 5610 5608 5608 5607 5606 5605 5605 5605
5612 5611 5623 5651 5651 5644 5644 5652 5654 5653 5652 5649 5646 5646 5645 5643 5640 5638 5635 5633 5631 5628 5625 5623 5622 5620 5618 5615 5616 5614 5612 5609 5607 5606 5605 5604 5601 5599 5598 5597 5596 5595 5595 5595
5621 5624 5637 5644 5644 5647 5647 5645 5647 5646 5647 5645 5641 5638 5636 5634 5631 5629 5627 5624 5622 5619 5615 5614 5613 5611 5609 5608 5608 5606 5603 5600 5598 5597 5595 5594 5592 5590 5589 5588 5586 5586 5586 5586
5619 5625 5631 5635 5638 5641 5641 5641 5642 5642 5641 5638 5633 5631 5628 5625 5622 5620 5617 5615 5612 5609 5606 5603 5602 5602 5601 5600 5599 5596 5594 5591 5589 5587 5586 5585 5583 5582 5581 5579 5578 5578 5578 5578
5611 5619 5622 5627 5629 5631 5633 5634 5634 5633 5632 5629 5626 5622 5619 5616 5613 5610 5608 5605 5602 5599 5596 5594 5592 5592 5592 5591 5589 5586 5584 5582 5580 5578 5576 5575 5574 5573 5573 5572 5571 5570 5570 5570
5606 5614 5612 5616 5623 5625 5623 5624 5624 5622 5620 5619 5617 5613 5610 5606 5604 5600 5597 5594 5591 5588 5585 5584 5583 5582 5581 5581 5580 5577 5574 5572 5570 5568 5567 5566 5565 5564 5564 5564 5564 5564 5563 5562
5611 5615 5612 5614 5615 5617 5615 5615 5615 5613 5611 5608 5607 5604 5601 5596 5592 5590 5586 5583 5581 5578 5576 5574 5572 5571 5571 5570 5569 5566 5564 5561 5560 5559 5557 5556 5555 5554 5554 5555 5555 5555 5554 5553
5608 5607 5604 5605 5605 5607 5606 5606 5604 5602 5600 5599 5596 5593 5589 5585 5581 5578 5575 5573 5571 5568 5566 5564 5562 5560 5560 5559 5558 5556 5553 5552 5550 5548 5547 5547 5546 5545 5545 5544 5543 5543 5543 5542
5601 5600 5598 5598 5598 5597 5596 5594 5591 5588 5587 5585 5584 5581 5577 5574 5570 5567 5565 5563 5560 5557 5555 5554 5552 5549 5548 5548 5546 5544 5542 5541 5540 5538 5538 5537 5536 5535 5534 5533 5532 5532 5531 5531
5592 5591 5590 5588 5587 5586 5584 5582 5579 5576 5575 5574 5571 5569 5567 5564 5560 5557 5555 5553 5550 5546 5544 5543 5541 5539 5538 5537 5535 5533 5532 5532 5530 5528 5527 5526 5525 5524 5523 5522 5521 5520 5519 5519
5581 5580 5579 5578 5577 5576 5574 5573 5571 5568 5566 5563 5561 5559 5556 5553 5549 5546 5544 5542 5540 5537 5535 5532 5530 5530 5528 5526 5525 5523 5521 5521 5521 5518 5517 5516 5515 5514 5513 5512 5511 5510 5510 5509
5578 5576 5574 5571 5569 5566 5565 5564 5561 5559 5556 5554 5552 5549 5545 5541 5538 5536 5534 5531 5529 5526 5524 5522 5521 5520 5518 5517 5515 5513 5511 5510 5508 5507 5506 5505 5504 5503 5502 5501 5500 5499 5499 5498
5570 5569 5566 5564 5562 5559 5556 5554 5552 5549 5547 5544 5541 5537 5535 5532 5529 5525 5522 5519 5517 5514 5513 5512 5512 5509 5508 5507 5506 5503 5502 5500 5498 5497 5495 5495 5493 5492 5490 5489 5489 5488 5487 5486
5561 5559 5557 5555 5554 5551 5547 5545 5543 5540 5537 5534 5531 5527 5523 5520 5518 5515 5511 5508 5506 5504 5503 5502 5500 5499 5497 5496 5495 5493 5492 5490 5488 5486 5485 5483 5482 5480 5479 5479 5478 5477 5476 5475
5549 5548 5546 5544 5543 5541 5538 5535 5532 5529 5526 5523 5520 5516 5513 5510 5507 5504 5500 5497 5496 5495 5493 5492 5490 5488 5488 5487 5485 5483 5481 5479 5477 5476 5474 5472 5471 5470 5468 5467 5467 5466 5465 5464
5538 5536 5535 5533 5531 5528 5526 5524 5522 5518 5515 5512 5510 5506 5502 5498 5495 5493 5491 5488 5487 5486 5483 5481 5480 5479 5478 5477 5474 5473 5471 5469 5467 5465 5463 5462 5460 5459 5457 5456 5455 5454 5453 5452
5528 5527 5525 5523 5520 5518 5515 5513 5511 5508 5504 5501 5498 5495 5491 5488 5485 5482 5480 5478 5477 5477 5474 5472 5471 5471 5469 5466 5464 5462 5461 5459 5457 5455 5453 5451 5450 5448 5447 5446 5444 5443 5441 5441
5519 5517 5516 5513 5510 5507 5503 5501 5499 5496 5493 5490 5487 5485 5482 5478 5474 5473 5471 5470 5468 5467 5464 5462 5462 5461 5458 5454 5453 5451 5450 5449 5447 5445 5443 5442 5439 5438 5436 5434 5433 5432 5431 5430
5509 5507 5505 5502 5498 5496 5493 5490 5487 5484 5481 5478 5476 5474 5471 5469 5466 5463 5461 5459 5458 5456 5453 5451 5451 5449 5446 5444 5442 5441 5439 5438 5436 5435 5433 5431 5429 5427 5425 5424 5423 5422 5421 5420
5498 5496 5494 5491 5489 5486 5482 5479 5476 5473 5470 5467 5464 5462 5460 5458 5456 5453 5451 5449 5447 5445 5442 5440 5439 5438 5436 5434 5433 5431 5430 5428 5427 5425 5423 5421 5419 5418 5416 5415 5413 5412 5411 5410
5486 5483 5481 5479 5476 5474 5472 5469 5466 5463 5460 5457 5454 5451 5450 5448 5445 5443 5441 5438 5436 5434 5432 5431 5429 5428 5426 5425 5423 5422 5421 5419 5418 5416 5415 5413 5411 5409 5407 5405 5404 5404 5403 5402